Etusivu
METAR-TAF:

METAR-TAF

Lentoasemat :

Hutchinson Municipal Airport (Butler Field)

Hutchinson, Minnesota, Yhdysvallat

Leveyspiiri: 44-52N, Pituuspiiri: 094-23W, korkeus merenpinnasta: 323 m

Tämänhetkinen sää

Tämä raportti tehtiin 18 minuuttia sitten, kello 20.16 UTC
tyyntä
Lämpötila 27°C
Kosteus 74%
Ilmanpaine 1011 hPa
Näkyvyys: 16.1 km
selkeää

METAR: KHCD 092016Z AUTO 00000KT 10SM CLR 27/22 A2985 RMK AO2 T02720222

Aika: 15:34 (20:34 UTC)


TAF: puuttuu

Säähavainnot ja -ennusteet yli 4000 lentoasemalta (METAR- ja TAF-raportit).

Käytössä olevat sääasemat on merkitty karttaan keltaisilla ja punaisilla pisteillä.

Aseta hiiri pisteen päälle nähdäksesi sääaseman nimen.

Klikkaa sitten nähdäksesi säähavainnot ja -ennusteet.

Kartan vaihtaminen: klikkaa mustalla rastilla varustettuja vihreitä pisteitä, niin voit zoomata sisään; viivalla varustettua vihreää pistettä, niin voit zoomata ulos tai vihreitä nuolia, niin pääset viereisille kartoille.


METAR-TAF: